Location: Unspecified
(58.9933°N, 5.6375°E)
Time: 09:25:42
(UTC+02:00)

Cosmos 2058 - Visible Passes

Search period start: 04 August 2015 00:00
Search period end: 14 August 2015 00:00
Orbit: 565 x 590 km, 82.5° (Epoch: 03 August)

Date Brightness Start Highest point End Pass type
(mag) Time Alt. Az. Time Alt. Az. Time Alt. Az.
04 Aug 4.5 03:18:00 10° N 03:21:50 35° ENE 03:25:39 10° SE visible
05 Aug 6.1 01:47:38 10° NE 01:47:57 10° NE 01:48:24 10° NE visible
05 Aug 4.1 03:22:13 10° N 03:26:11 42° ENE 03:30:09 10° SE visible
06 Aug 5.8 01:50:51 10° NNE 01:52:27 12° NE 01:54:09 10° ENE visible
06 Aug 3.7 03:26:27 10° N 03:30:31 53° ENE 03:34:36 10° SSE visible
07 Aug 5.7 01:54:42 10° NNE 01:56:55 14° NE 01:59:15 10° E visible
07 Aug 3.3 03:30:41 10° N 03:34:50 66° ENE 03:38:58 10° SSE visible
08 Aug 5.5 01:58:41 10° NNE 02:01:23 17° NE 02:04:10 10° E visible
08 Aug 3.0 03:34:57 10° NNW 03:39:07 83° ENE 03:43:18 10° SSE visible
09 Aug 5.3 02:02:45 10° N 02:05:49 20° ENE 02:08:57 10° ESE visible
09 Aug 2.9 03:39:14 10° NNW 03:43:24 79° W 03:47:34 10° S visible
10 Aug 5.0 02:06:51 10° N 02:10:14 24° ENE 02:13:39 10° ESE visible
10 Aug 3.0 03:43:31 10° NNW 03:47:39 63° W 03:51:28 12° S visible
11 Aug 4.7 02:11:00 10° N 02:14:37 28° ENE 02:18:17 10° ESE visible
11 Aug 3.2 03:47:51 10° NNW 03:51:53 49° W 03:55:17 14° SSW visible
12 Aug 4.3 02:15:10 10° N 02:18:59 34° ENE 02:22:50 10° SE visible
12 Aug 3.5 03:52:11 10° NNW 03:56:06 39° W 03:59:08 15° SSW visible
13 Aug 5.9 00:44:48 10° NE 00:45:06 10° NE 00:45:31 10° NE visible
13 Aug 4.0 02:19:22 10° N 02:23:20 42° ENE 02:26:45 13° SE visible
13 Aug 3.9 03:56:33 10° NNW 04:00:18 32° W 04:03:01 16° SW visible
